This demonstration page uses our WeatherBlox Daily Observations layout. Learn more.

Left ArrowRight Arrow

Hourly Observations for October 30, 2015

Temp ( °F °C ) Dew Point ( °F °C ) Humidity (%) Winds ( mph kmh ) Pressure ( in mb ) Visibility ( mi km ) Precip ( " mm )
12:15 am 00:15 Clear 32 0 21 -6 64 64 SSE 7 11 30.09 1019 10 16 0.00 0.00
12:35 am 00:35 Clear 34 1 21 -6 60 60 S 7 11 30.09 1019 10 16 0.00 0.00
12:55 am 00:55 Clear 34 1 21 -6 60 60 S 6 9 30.09 1019 10 16 0.00 0.00
1:15 am 01:15 Clear 34 1 23 -5 65 65 S 5 7 30.09 1019 10 16 0.00 0.00
1:35 am 01:35 Clear 34 1 21 -6 60 60 S 6 9 30.03 1017 10 16 0.00 0.00
1:55 am 01:55 Clear 34 1 21 -6 60 60 S 5 7 30.03 1017 10 16 0.00 0.00
2:15 am 02:15 Clear 34 1 23 -5 65 65 S 7 11 30.03 1017 10 16 0.00 0.00
2:35 am 02:35 Mostly Clear 34 1 25 -4 70 70 SSW 6 9 30.09 1019 10 16 0.00 0.00
2:55 am 02:55 Mostly Clear 34 1 27 -3 75 75 S 7 11 30.09 1019 10 16 0.00 0.00
3:15 am 03:15 Clear 34 1 27 -3 75 75 S 5 7 30.03 1017 10 16 0.00 0.00
3:35 am 03:35 Clear 36 2 25 -4 65 65 S 5 7 30.03 1017 10 16 0.00 0.00
3:55 am 03:55 Clear 36 2 25 -4 65 65 SSW 7 11 30.03 1017 10 16 0.00 0.00
4:15 am 04:15 Clear 34 1 23 -5 65 65 S 7 11 30.03 1017 10 16 0.00 0.00
4:35 am 04:35 Clear 34 1 23 -5 65 65 SSW 6 9 30.03 1017 10 16 0.00 0.00
4:55 am 04:55 Clear 36 2 23 -5 60 60 S 6 9 30.03 1017 10 16 0.00 0.00
5:15 am 05:15 Clear 36 2 25 -4 65 65 S 5 7 30.03 1017 10 16 0.00 0.00
5:35 am 05:35 Clear 36 2 25 -4 65 65 S 6 9 30.03 1017 10 16 0.00 0.00
5:55 am 05:55 Clear 34 1 25 -4 70 70 S 5 7 30.03 1017 10 16 0.00 0.00
6:15 am 06:15 Mostly Clear 36 2 25 -4 65 65 S 6 9 30.03 1017 10 16 0.00 0.00
6:35 am 06:35 Mostly Cloudy 36 2 27 -3 70 70 S 6 9 30.00 1016 10 16 0.00 0.00
6:55 am 06:55 Mostly Cloudy 37 3 27 -3 65 65 Calm 30.00 1016 10 16 0.00 0.00
7:15 am 07:15 Mostly Clear 36 2 27 -3 70 70 Calm 30.00 1016 10 16 0.00 0.00
7:35 am 07:35 Mostly Clear 36 2 25 -4 65 65 Calm 30.00 1016 10 16 0.00 0.00
7:55 am 07:55 Mostly Cloudy 36 2 25 -4 65 65 SSE 3 6 30.00 1016 10 16 0.00 0.00
8:15 am 08:15 Mostly Cloudy 37 3 27 -3 65 65 Calm 29.97 1015 10 16 0.00 0.00
8:35 am 08:35 Partly Cloudy 36 2 27 -3 70 70 SSE 5 7 30.00 1016 10 16 0.00 0.00
8:55 am 08:55 Mostly Cloudy 39 4 27 -3 61 61 S 7 11 30.00 1016 10 16 0.00 0.00
9:15 am 09:15 Mostly Cloudy 39 4 27 -3 61 61 S 7 11 30.00 1016 10 16 0.00 0.00
9:35 am 09:35 Mostly Cloudy 41 5 27 -3 57 57 S 9 15 29.97 1015 10 16 0.00 0.00
9:55 am 09:55 Partly Cloudy 43 6 27 -3 53 53 S 12 19 29.97 1015 10 16 0.00 0.00
10:15 am 10:15 Mostly Sunny 45 7 27 -3 49 49 S 13 20 29.97 1015 10 16 0.00 0.00
10:35 am 10:35 Mostly Cloudy 46 8 27 -3 46 46 S 14 22 29.94 1014 10 16 0.00 0.00
10:55 am 10:55 Cloudy 48 9 27 -3 43 43 S 14 22 29.94 1014 10 16 0.00 0.00
11:15 am 11:15 Cloudy 46 8 25 -4 43 43 S 16 26 29.94 1014 10 16 0.00 0.00
11:35 am 11:35 Cloudy 46 8 27 -3 46 46 SSW 12 19 29.94 1014 10 16 0.00 0.00
11:55 am 11:55 Cloudy 46 8 25 -4 43 43 SSW 14 22 29.97 1015 10 16 0.00 0.00
12:15 pm 12:15 Cloudy 45 7 28 -2 53 53 SSW 14 22 30.00 1016 10 16 0.00 0.00
12:35 pm 12:35 Cloudy 43 6 30 -1 61 61 SSW 12 19 30.00 1016 10 16 0.00 0.00
12:55 pm 12:55 Cloudy 43 6 34 1 71 71 SSW 8 13 30.00 1016 10 16 0.02 0.51
1:15 pm 13:15 Cloudy 43 6 34 1 71 71 SSW 8 13 30.00 1016 10 16 0.00 0.00
1:35 pm 13:35 Cloudy 41 5 34 1 76 76 SW 7 11 29.97 1015 10 16 0.02 0.51
1:55 pm 13:55 Cloudy 41 5 34 1 76 76 SSW 6 9 29.97 1015 10 16 0.03 0.76
2:15 pm 14:15 Cloudy 41 5 34 1 76 76 SSW 6 9 29.97 1015 10 16 0.00 0.00
2:35 pm 14:35 Mostly Cloudy 41 5 34 1 76 76 S 5 7 29.94 1014 10 16 0.01 0.25
2:55 pm 14:55 Mostly Cloudy 41 5 36 2 81 81 S 5 7 29.94 1014 10 16 0.02 0.51
3:15 pm 15:15 Cloudy 43 6 34 1 71 71 SW 5 7 29.94 1014 10 16 0.00 0.00
3:35 pm 15:35 Cloudy 43 6 34 1 71 71 SW 3 6 29.91 1013 10 16 0.01 0.25
3:55 pm 15:55 Cloudy 43 6 34 1 71 71 Calm 29.91 1013 10 16 0.01 0.25
4:15 pm 16:15 Cloudy 41 5 34 1 76 76 S 5 7 29.91 1013 10 16 0.00 0.00
4:35 pm 16:35 Cloudy 41 5 36 2 81 81 S 3 6 29.91 1013 10 16 0.01 0.25
4:55 pm 16:55 Cloudy 41 5 36 2 81 81 S 5 7 29.91 1013 9 14 0.02 0.51
5:15 pm 17:15 Cloudy 41 5 36 2 81 81 Calm 29.91 1013 10 16 0.00 0.00
5:35 pm 17:35 Cloudy 41 5 36 2 81 81 SSE 5 7 29.91 1013 10 16 0.02 0.51
5:55 pm 17:55 Cloudy 41 5 36 2 81 81 SE 5 7 29.91 1013 9 14 0.03 0.76
6:15 pm 18:15 Cloudy 41 5 36 2 81 81 SE 6 9 29.91 1013 10 16 0.00 0.00
6:35 pm 18:35 Cloudy 41 5 36 2 81 81 SE 8 13 29.91 1013 9 14 0.01 0.25
6:55 pm 18:55 Cloudy 39 4 36 2 87 87 ESE 6 9 29.88 1012 10 16 0.03 0.76
7:15 pm 19:15 Cloudy 39 4 36 2 87 87 ESE 6 9 29.88 1012 10 16 0.00 0.00
7:35 pm 19:35 Cloudy 39 4 36 2 87 87 ESE 6 9 29.88 1012 7 11 0.03 0.76
7:55 pm 19:55 Cloudy 39 4 36 2 87 87 SE 6 9 29.88 1012 10 16 0.04 1.02
8:15 pm 20:15 Cloudy 39 4 36 2 87 87 SE 7 11 29.88 1012 10 16 0.00 0.00
8:35 pm 20:35 Cloudy 39 4 36 2 87 87 SE 10 17 29.88 1012 10 16 0.00 0.00
8:55 pm 20:55 Cloudy 39 4 36 2 87 87 SE 8 13 29.88 1012 10 16 0.01 0.25
9:15 pm 21:15 Cloudy 39 4 36 2 87 87 SSE 9 15 29.88 1012 10 16 0.00 0.00
9:35 pm 21:35 Cloudy 39 4 36 2 87 87 SSE 8 13 29.85 1011 10 16 0.02 0.51
9:55 pm 21:55 Cloudy 39 4 36 2 87 87 S 6 9 29.85 1011 10 16 0.03 0.76
10:15 pm 22:15 Cloudy 39 4 36 2 87 87 SSE 6 9 29.85 1011 10 16 0.00 0.00
10:35 pm 22:35 Cloudy 39 4 36 2 87 87 S 5 7 29.85 1011 9 14 0.01 0.25
10:55 pm 22:55 Cloudy 39 4 36 2 87 87 S 3 6 29.85 1011 10 16 0.02 0.51
11:15 pm 23:15 Cloudy 41 5 36 2 81 81 WSW 6 9 29.85 1011 8 13 0.00 0.00
11:35 pm 23:35 Cloudy 41 5 37 3 87 87 WSW 5 7 29.85 1011 5 8 0.01 0.25
11:55 pm 23:55 Cloudy 39 4 36 2 87 87 S 5 7 29.85 1011 6 10 0.02 0.51

Powered by AerisWeather